P/2022 C2 ( PanSTARRS )

Japanese version
Home page
Updated on December 19, 2023

---------------------------------------------------------------------

* Profile

Discovery Date February 2, 2022
Magnitude 20.8 mag
Discoverer Pan-STARRS 2 telescope (Haleakala)

* Pictures

* Orbital Elements

Epoch 2023 Sept. 13.0 TT = JDT 2460200.5
T 2022 Aug. 6.30033 TT                                  Rudenko
q   3.3700855            (2000.0)            P               Q
n   0.06639757     Peri.   89.26155     -0.70230313     +0.70134732
a   6.0399675      Node   135.26261     -0.70242201     -0.65488462
e   0.4420358      Incl.    9.98092     -0.11564441     -0.28149259
P  14.8
>From 254 observations 2022 Feb. 2-July 28, mean residual 0".4.

* Magnitudes Graph

        m1 = 5.5 + 5 log d + 20.0 log r

---------------------------------------------------------------------

The orbital elements are published on M.P.E.C. 2023-V225.
The magnitudes graphs are made with Comet for Windows.

---------------------------------------------------------------------

Copyright(C) Seiichi Yoshida (comet@aerith.net). All rights reserved.